Location: Unspecified
(0.0000°N, 0.0000°E)
Time: 10:08:27
(UTC+00:00)

Courier 1B Rocket - Pass Details

Date: 26 May 2026
Orbit: 920 x 1201 km, 28.2° (Epoch: 9 June)

Event Time Altitude Azimuth Distance (km) Brightness Sun altitude
Rises 00:07:48 0° 248° (WSW) 4,068 - -68.7°
Reaches altitude 10° 00:10:45 10° 252° (WSW) 3,082 - -68.6°
Maximum altitude 00:18:15 59° 330° (NNW) 1,282 - -68.3°
Drops below altitude 10° 00:25:17 10° 48° (NE) 2,893 - -67.8°
Sets 00:27:58 0° 52° (NE) 3,804 - -67.6°
